Location: Unspecified
(0.0000°N, 0.0000°E)
Time: 05:19:11
(UTC+00:00)

Kitsat-3 - Pass Details

Date: 20 May 2026
Orbit: 698 x 715 km, 98.6° (Epoch: 11 June)

Event Time Altitude Azimuth Distance (km) Brightness Sun altitude
Exits shadow 18:54:35 17° 87° (E) 1,709 9.1 -13.6°
Maximum altitude 18:55:12 18° 77° (ENE) 1,689 9.1 -13.7°
Drops below altitude 10° 18:58:19 10° 35° (NE) 2,152 10.0 -14.5°
Sets 19:01:13 0° 16° (NNE) 3,068 11.0 -15.1°
